Las Cruces, NM

8:11 AM MDT on March 30, 2017 (GMT -0600)
Las Cruces International

Weather History for KLRU - November, 2012

Change the Weather History Date:

Friday, November 30, 2012

  Actual Average Record
Temperature  
Mean Temperature 52 °F -  
Max Temperature 70 °F 55 °F 71 °F (2003)
Min Temperature 35 °F 33 °F 15 °F (2010)
Degree Days  
Heating Degree Days 12    
Growing Degree Days 2 (Base 50)    
Moisture  
Dew Point 24 °F    
Average Humidity 35    
Maximum Humidity 54    
Minimum Humidity 19    
Precipitation  
Precipitation 0.00 in - - ()
Sea Level Pressure  
Sea Level Pressure 30.18 in    
Wind  
Wind Speed 6 mph (WSW)    
Max Wind Speed 13 mph    
Max Gust Speed -    
Visibility 10 miles    
Events      
Averages and records for this station are not official NWS values.
T = Trace of Precipitation, MM = Missing Value Source: NWS Daily Summary

Daily Weather History Graph

Daily Weather History Graph

Search for Another Location

Airport or City:

Trip Planner

Search our weather history database for the weather conditions in past years. The results will help you decide how hot, cold, wet, or windy it might be!

Date:

Astronomy

Nov. 30, 2012 Rise Set
Actual Time 6:50 AM MST 5:02 PM MST
Civil Twilight 6:23 AM MST 5:29 PM MST
Nautical Twilight 5:53 AM MST 5:59 PM MST
Astronomical Twilight 5:23 AM MST 6:29 PM MST
Moon 6:58 PM MST 8:24 AM MST
Length of Visible Light 11h 05m
Length of Day
10h 11m
Waning Gibbous, 96% of the Moon is Illuminated
Nov 30
Waning Gibbous
Dec 6
Last Quarter
Dec 13
New
Dec 19
First Quarter
Dec 28
Full

Hourly Weather History & Observations

Time (MST) Temp. Windchill Dew Point Humidity Pressure Visibility Wind Dir Wind Speed Gust Speed Precip Events Conditions
12:15 AM 46.0 °F 41.9 °F 20.3 °F 36% 30.19 in 10.0 mi SW 8.1 mph - N/A   Clear
12:35 AM 47.5 °F - 20.8 °F 35% 30.19 in 10.0 mi WSW 10.4 mph - N/A   Clear
12:55 AM 49.1 °F - 21.7 °F 34% 30.19 in 10.0 mi WSW 12.7 mph - N/A   Clear
1:15 AM 49.8 °F - 21.9 °F 33% 30.18 in 10.0 mi WSW 12.7 mph - N/A   Clear
1:35 AM 47.8 °F - 21.4 °F 35% 30.19 in 10.0 mi WSW 10.4 mph - N/A   Clear
1:55 AM 46.6 °F - 21.2 °F 37% 30.19 in 10.0 mi West 6.9 mph - N/A   Clear
2:15 AM 46.0 °F 41.9 °F 21.2 °F 37% 30.19 in 10.0 mi West 8.1 mph - N/A   Clear
2:35 AM 45.0 °F 40.1 °F 21.4 °F 39% 30.19 in 10.0 mi West 9.2 mph - N/A   Clear
2:55 AM 44.2 °F 38.8 °F 21.4 °F 40% 30.18 in 10.0 mi West 10.4 mph - N/A   Clear
3:15 AM 43.9 °F 38.8 °F 21.4 °F 41% 30.18 in 10.0 mi West 9.2 mph - N/A   Clear
3:35 AM 42.1 °F 37.7 °F 21.2 °F 43% 30.18 in 10.0 mi NW 6.9 mph - N/A   Clear
3:55 AM 42.4 °F 39.6 °F 22.1 °F 44% 30.18 in 10.0 mi NNW 4.6 mph - N/A   Clear
4:15 AM 42.1 °F 40.2 °F 21.7 °F 44% 30.18 in 10.0 mi North 3.5 mph - N/A   Clear
4:35 AM 39.6 °F - 21.2 °F 48% 30.18 in 10.0 mi Calm Calm - N/A   Clear
4:55 AM 38.7 °F - 21.0 °F 49% 30.18 in 10.0 mi Calm Calm - N/A   Clear
5:15 AM 38.1 °F 34.6 °F 20.1 °F 48% 30.19 in 10.0 mi West 4.6 mph - N/A   Clear
5:35 AM 39.0 °F 34.0 °F 20.5 °F 47% 30.19 in 10.0 mi WNW 6.9 mph - N/A   Clear
5:55 AM 40.3 °F 37.1 °F 21.2 °F 47% 30.20 in 10.0 mi WNW 4.6 mph - N/A   Clear
6:15 AM 37.0 °F - 20.3 °F 51% 30.21 in 10.0 mi Calm Calm - N/A   Clear
6:35 AM 37.0 °F - 21.2 °F 53% 30.21 in 10.0 mi Calm Calm - N/A   Clear
6:55 AM 35.4 °F - 19.6 °F 53% 30.21 in 10.0 mi Calm Calm - N/A   Clear
7:15 AM 35.8 °F - 20.7 °F 54% 30.22 in 10.0 mi Calm Calm - N/A   Clear
7:35 AM 39.4 °F 37.2 °F 20.8 °F 47% 30.23 in 10.0 mi ENE 3.5 mph - N/A   Clear
7:55 AM 45.3 °F - 22.3 °F 40% 30.23 in 10.0 mi Calm Calm - N/A   Clear
8:15 AM 46.0 °F 44.8 °F 22.1 °F 39% 30.24 in 10.0 mi East 3.5 mph - N/A   Clear
8:35 AM 46.8 °F - 22.1 °F 38% 30.24 in 10.0 mi ENE 5.8 mph - N/A   Clear
8:55 AM 48.0 °F - 22.3 °F 36% 30.25 in 10.0 mi Calm Calm - N/A   Clear
9:15 AM 49.5 °F - 22.6 °F 35% 30.25 in 10.0 mi NNE 3.5 mph - N/A   Clear
9:35 AM 51.8 °F - 22.8 °F 32% 30.25 in 10.0 mi ENE 3.5 mph - N/A   Clear
9:55 AM 53.1 °F - 23.0 °F 31% 30.25 in 10.0 mi Calm Calm - N/A   Clear
10:15 AM 54.7 °F - 23.4 °F 30% 30.25 in 10.0 mi Calm Calm - N/A   Clear
10:35 AM 56.1 °F - 23.7 °F 29% 30.25 in 10.0 mi Calm Calm - N/A   Clear
10:55 AM 57.7 °F - 24.4 °F 28% 30.24 in 10.0 mi Calm Calm - N/A   Clear
11:15 AM 60.1 °F - 25.0 °F 26% 30.23 in 10.0 mi East 3.5 mph - N/A   Clear
11:35 AM 61.5 °F - 24.6 °F 24% 30.22 in 10.0 mi Calm Calm - N/A   Clear
12:15 PM 65.1 °F - 28.6 °F 25% 30.20 in 10.0 mi WSW 3.5 mph - N/A   Clear
12:35 PM 66.9 °F - 29.7 °F 25% 30.19 in 10.0 mi West 6.9 mph - N/A   Clear
12:55 PM 67.3 °F - 28.4 °F 23% 30.17 in 10.0 mi West 4.6 mph - N/A   Clear
1:15 PM 67.6 °F - 29.1 °F 24% 30.16 in 10.0 mi WSW 6.9 mph - N/A   Clear
1:35 PM 68.9 °F - 29.3 °F 23% 30.16 in 10.0 mi WSW 6.9 mph - N/A   Clear
1:55 PM 68.9 °F - 29.7 °F 23% 30.15 in 10.0 mi South 6.9 mph - N/A   Clear
2:15 PM 70.3 °F - 29.8 °F 22% 30.14 in 10.0 mi West 5.8 mph - N/A   Clear
2:35 PM 70.0 °F - 28.4 °F 21% 30.13 in 10.0 mi West 4.6 mph - N/A   Clear
3:15 PM 70.0 °F - 26.8 °F 20% 30.13 in 10.0 mi WSW 8.1 mph - N/A   Clear
3:35 PM 70.2 °F - 26.1 °F 19% 30.12 in 10.0 mi WSW 6.9 mph - N/A   Clear
3:55 PM 69.8 °F - 25.2 °F 19% 30.12 in 10.0 mi WSW 8.1 mph - N/A   Clear
4:15 PM 69.3 °F - 24.6 °F 19% 30.12 in 10.0 mi WSW 11.5 mph - N/A   Clear
4:35 PM 68.2 °F - 26.4 °F 21% 30.12 in 10.0 mi WSW 8.1 mph - N/A   Clear
4:55 PM 66.6 °F - 27.0 °F 23% 30.12 in 10.0 mi SW 4.6 mph - N/A   Clear
5:15 PM 63.9 °F - 27.5 °F 25% 30.13 in 10.0 mi SSW 5.8 mph - N/A   Clear
5:35 PM 61.0 °F - 27.3 °F 28% 30.13 in 10.0 mi SSW 4.6 mph - N/A   Clear
5:55 PM 57.9 °F - 27.0 °F 31% 30.13 in 10.0 mi SW 4.6 mph - N/A   Clear
6:15 PM 54.5 °F - 24.8 °F 32% 30.13 in 10.0 mi SW 6.9 mph - N/A   Clear
6:35 PM 55.2 °F - 25.7 °F 32% 30.13 in 10.0 mi Calm Calm - N/A   Clear
6:55 PM 55.4 °F - 27.5 °F 34% 30.13 in 10.0 mi West 3.5 mph - N/A   Clear
7:15 PM 52.9 °F - 25.2 °F 34% 30.13 in 10.0 mi SW 4.6 mph - N/A   Clear
7:35 PM 54.0 °F - 26.4 °F 35% 30.14 in 10.0 mi WSW 3.5 mph - N/A   Clear
7:55 PM 52.9 °F - 25.3 °F 34% 30.15 in 10.0 mi Calm Calm - N/A   Clear
8:15 PM 56.5 °F - 27.1 °F 32% 30.15 in 10.0 mi WSW 3.5 mph - N/A   Clear
8:35 PM 54.0 °F - 26.4 °F 35% 30.15 in 10.0 mi Calm Calm - N/A   Clear
8:55 PM 52.2 °F - 25.3 °F 35% 30.15 in 10.0 mi WSW 4.6 mph - N/A   Clear
9:15 PM 51.8 °F - 23.7 °F 33% 30.15 in 10.0 mi SW 5.8 mph - N/A   Clear
9:35 PM 50.2 °F - 23.2 °F 35% 30.15 in 10.0 mi SW 5.8 mph - N/A   Clear
9:55 PM 49.8 °F - 23.0 °F 35% 30.16 in 10.0 mi WSW 6.9 mph - N/A   Clear
10:15 PM 49.5 °F - 22.1 °F 34% 30.16 in 10.0 mi West 4.6 mph - N/A   Clear
10:35 PM 45.9 °F - 21.0 °F 37% 30.15 in 10.0 mi Calm Calm - N/A   Clear
10:55 PM 43.2 °F - 20.7 °F 41% 30.16 in 10.0 mi Calm Calm - N/A   Clear
11:15 PM 41.5 °F - 20.3 °F 43% 30.16 in 10.0 mi Calm Calm - N/A   Clear
11:35 PM 41.7 °F - 20.7 °F 43% 30.16 in 10.0 mi Calm Calm - N/A   Clear
11:55 PM 43.0 °F 40.3 °F 21.0 °F 42% 30.16 in 10.0 mi SW 4.6 mph - N/A   Clear